Time,TemperatureF,DewpointF,PressureIn,WindDirection,WindDirectionDegrees,WindSpeedMPH,WindSpeedGustMPH,Humidity,HourlyPrecipIn,Conditions,Clouds,dailyrainin,SoftwareType,DateUTC
2013-06-06 00:05:00,58.5,56.0,30.14,East,98,0.0,3.0,91,0.00,,,0.00,weatherlink.com 1.10,2013-06-06 04:05:00,
2013-06-06 00:20:00,58.1,56.0,30.14,SE,126,0.0,1.0,92,0.00,,,0.00,weatherlink.com 1.10,2013-06-06 04:20:00,
2013-06-06 00:35:00,58.0,56.0,30.14,NE,55,0.0,1.0,93,0.00,,,0.00,weatherlink.com 1.10,2013-06-06 04:35:00,
2013-06-06 00:50:00,57.9,56.0,30.14,ESE,111,0.0,1.0,93,0.00,,,0.00,weatherlink.com 1.10,2013-06-06 04:50:00,
2013-06-06 01:06:00,57.7,56.0,30.14,ESE,115,0.0,1.0,93,0.00,,,0.00,weatherlink.com 1.10,2013-06-06 05:06:00,
2013-06-06 01:21:00,57.9,56.0,30.13,SE,125,1.0,2.0,94,0.00,,,0.00,weatherlink.com 1.10,2013-06-06 05:21:00,
2013-06-06 01:36:00,58.1,56.0,30.12,East,92,0.0,1.0,94,0.00,,,0.00,weatherlink.com 1.10,2013-06-06 05:36:00,
2013-06-06 01:51:00,58.0,56.0,30.12,SE,129,0.0,1.0,94,0.00,,,0.00,weatherlink.com 1.10,2013-06-06 05:51:00,
2013-06-06 02:06:00,58.0,57.0,30.12,SE,125,1.0,2.0,95,0.00,,,0.00,weatherlink.com 1.10,2013-06-06 06:06:00,
2013-06-06 02:21:00,58.6,57.0,30.13,NE,50,0.0,2.0,95,0.00,,,0.00,weatherlink.com 1.10,2013-06-06 06:21:00,
2013-06-06 02:36:00,58.8,57.0,30.13,ESE,108,0.0,2.0,95,0.00,,,0.00,weatherlink.com 1.10,2013-06-06 06:36:00,
2013-06-06 02:51:00,59.0,58.0,30.13,East,84,0.0,1.0,95,0.00,,,0.00,weatherlink.com 1.10,2013-06-06 06:51:00,
2013-06-06 03:06:00,59.1,58.0,30.13,East,89,0.0,1.0,95,0.00,,,0.00,weatherlink.com 1.10,2013-06-06 07:06:00,
2013-06-06 03:21:00,59.3,58.0,30.13,East,95,0.0,0.0,95,0.00,,,0.00,weatherlink.com 1.10,2013-06-06 07:21:00,
2013-06-06 03:36:00,59.5,58.0,30.13,ESE,103,0.0,1.0,95,0.00,,,0.00,weatherlink.com 1.10,2013-06-06 07:36:00,
2013-06-06 03:51:00,59.7,58.0,30.13,SSE,153,0.0,2.0,95,0.00,,,0.00,weatherlink.com 1.10,2013-06-06 07:51:00,
2013-06-06 04:06:00,59.7,58.0,30.13,ENE,72,0.0,1.0,95,0.00,,,0.00,weatherlink.com 1.10,2013-06-06 08:06:00,
2013-06-06 04:21:00,59.7,58.0,30.13,ENE,75,0.0,1.0,95,0.00,,,0.00,weatherlink.com 1.10,2013-06-06 08:21:00,
2013-06-06 04:36:00,59.3,58.0,30.14,ENE,75,0.0,0.0,95,0.00,,,0.00,weatherlink.com 1.10,2013-06-06 08:36:00,
2013-06-06 04:51:00,58.7,57.0,30.13,ENE,75,0.0,0.0,95,0.00,,,0.00,weatherlink.com 1.10,2013-06-06 08:51:00,
2013-06-06 05:06:00,58.4,57.0,30.13,East,82,0.0,1.0,95,0.00,,,0.00,weatherlink.com 1.10,2013-06-06 09:06:00,
2013-06-06 05:21:00,58.1,57.0,30.13,East,82,1.0,1.0,95,0.00,,,0.00,weatherlink.com 1.10,2013-06-06 09:21:00,
2013-06-06 05:51:00,58.2,57.0,30.13,ESE,114,0.0,1.0,95,0.00,,,0.00,weatherlink.com 1.10,2013-06-06 09:51:00,
2013-06-06 06:06:00,58.7,57.0,30.12,ESE,113,2.0,3.0,95,0.00,,,0.00,weatherlink.com 1.10,2013-06-06 10:06:00,
2013-06-06 06:21:00,59.4,58.0,30.12,ESE,105,0.0,2.0,94,0.00,,,0.00,weatherlink.com 1.10,2013-06-06 10:21:00,
2013-06-06 06:36:00,59.7,58.0,30.13,East,91,0.0,3.0,93,0.00,,,0.00,weatherlink.com 1.10,2013-06-06 10:36:00,
2013-06-06 07:06:00,60.4,58.0,30.14,West,259,0.0,3.0,93,0.00,,,0.00,weatherlink.com 1.10,2013-06-06 11:06:00,
2013-06-06 07:21:00,61.3,59.0,30.13,SE,139,0.0,3.0,92,0.00,,,0.00,weatherlink.com 1.10,2013-06-06 11:21:00,
2013-06-06 07:36:00,62.3,59.0,30.13,ESE,119,1.0,2.0,90,0.00,,,0.00,weatherlink.com 1.10,2013-06-06 11:36:00,
2013-06-06 07:51:00,63.2,59.0,30.13,SE,127,0.0,4.0,87,0.00,,,0.00,weatherlink.com 1.10,2013-06-06 11:51:00,
2013-06-06 08:21:00,65.8,60.0,30.13,ESE,118,0.0,2.0,81,0.00,,,0.00,weatherlink.com 1.10,2013-06-06 12:21:00,
2013-06-06 08:36:00,66.9,60.0,30.13,WNW,287,0.0,3.0,78,0.00,,,0.00,weatherlink.com 1.10,2013-06-06 12:36:00,
2013-06-06 08:51:00,67.5,60.0,30.13,WSW,255,1.0,3.0,78,0.00,,,0.00,weatherlink.com 1.10,2013-06-06 12:51:00,
2013-06-06 09:06:00,68.4,60.0,30.13,ESE,119,1.0,5.0,75,0.00,,,0.00,weatherlink.com 1.10,2013-06-06 13:06:00,
2013-06-06 09:36:00,70.8,60.0,30.12,ESE,105,1.0,5.0,69,0.00,,,0.00,weatherlink.com 1.10,2013-06-06 13:36:00,
2013-06-06 09:51:00,70.6,59.0,30.12,ESE,114,2.0,7.0,66,0.00,,,0.00,weatherlink.com 1.10,2013-06-06 13:51:00,
2013-06-06 10:06:00,70.8,57.0,30.12,NNE,16,2.0,7.0,61,0.00,,,0.00,weatherlink.com 1.10,2013-06-06 14:06:00,
2013-06-06 10:19:00,71.9,56.3,30.12,SE,132,2.0,2.0,58,0.00,,,0.00,Wunderground v.1.15,2013-06-06 14:19:00,
2013-06-06 10:29:00,71.5,55.9,30.12,ESE,108,2.0,-999.0,58,0.00,,,0.00,Wunderground v.1.15,2013-06-06 14:29:00,
2013-06-06 10:37:00,71.9,58.0,30.12,SSW,204,0.0,5.0,62,0.00,,,0.00,weatherlink.com 1.10,2013-06-06 14:37:00,
2013-06-06 10:52:00,72.8,57.0,30.12,ESE,113,8.0,8.0,58,0.00,,,0.00,weatherlink.com 1.10,2013-06-06 14:52:00,
2013-06-06 11:04:00,71.3,55.8,30.12,SE,142,3.0,4.0,58,0.00,,,0.00,Wunderground v.1.15,2013-06-06 15:04:00,
2013-06-06 11:10:00,72.1,56.0,30.12,ESE,105,2.0,2.0,57,0.00,,,0.00,Wunderground v.1.15,2013-06-06 15:10:00,
2013-06-06 11:19:00,72.1,53.0,30.12,NW,322,3.0,3.0,51,0.00,,,0.00,Wunderground v.1.15,2013-06-06 15:19:00,
2013-06-06 11:25:00,71.4,52.3,30.12,South,169,4.0,4.0,51,0.00,,,0.00,Wunderground v.1.15,2013-06-06 15:25:00,
2013-06-06 11:35:00,71.9,52.8,30.12,ESE,105,2.0,4.0,51,0.00,,,0.00,Wunderground v.1.15,2013-06-06 15:35:00,
2013-06-06 11:44:00,72.0,50.7,30.11,ESE,105,3.0,4.0,47,0.00,,,0.00,Wunderground v.1.15,2013-06-06 15:44:00,
2013-06-06 11:53:00,71.6,51.0,30.11,South,175,2.0,9.0,49,0.00,,,0.00,weatherlink.com 1.10,2013-06-06 15:53:00,
2013-06-06 12:00:00,72.1,50.8,30.11,SE,124,2.0,4.0,47,0.00,,,0.00,Wunderground v.1.15,2013-06-06 16:00:00,
2013-06-06 12:08:00,71.9,50.0,30.12,SSE,149,1.0,7.0,47,0.00,,,0.00,weatherlink.com 1.10,2013-06-06 16:08:00,
2013-06-06 12:15:00,72.5,52.2,30.11,East,94,2.0,7.0,49,0.00,,,0.00,Wunderground v.1.15,2013-06-06 16:15:00,
2013-06-06 12:20:00,72.5,52.8,30.11,SE,146,3.0,4.0,50,0.00,,,0.00,Wunderground v.1.15,2013-06-06 16:20:00,
2013-06-06 12:29:00,71.4,49.5,30.11,ESE,117,4.0,4.0,46,0.00,,,0.00,Wunderground v.1.15,2013-06-06 16:29:00,
2013-06-06 12:34:00,71.3,50.0,30.10,ESE,103,4.0,4.0,47,0.00,,,0.00,Wunderground v.1.15,2013-06-06 16:34:00,
2013-06-06 12:39:00,71.8,51.6,30.10,SSE,163,3.0,3.0,49,0.00,,,0.00,Wunderground v.1.15,2013-06-06 16:39:00,
2013-06-06 12:49:00,72.1,51.3,30.10,SW,235,3.0,3.0,48,0.00,,,0.00,Wunderground v.1.15,2013-06-06 16:49:00,
2013-06-06 13:00:00,71.3,52.2,30.10,WNW,287,3.0,3.0,51,0.00,,,0.00,Wunderground v.1.15,2013-06-06 17:00:00,
2013-06-06 13:07:00,70.5,49.0,30.10,ESE,121,2.0,10.0,46,0.00,,,0.00,weatherlink.com 1.10,2013-06-06 17:07:00,
2013-06-06 13:14:00,70.1,49.5,30.10,South,169,5.0,5.0,48,0.00,,,0.00,Wunderground v.1.15,2013-06-06 17:14:00,
2013-06-06 13:19:00,70.3,49.7,30.10,WSW,246,4.0,4.0,48,0.00,,,0.00,Wunderground v.1.15,2013-06-06 17:19:00,
2013-06-06 13:24:00,70.3,49.1,30.09,WSW,252,3.0,4.0,47,0.00,,,0.00,Wunderground v.1.15,2013-06-06 17:24:00,
2013-06-06 13:34:00,70.3,49.1,30.09,East,94,4.0,8.0,47,0.00,,,0.00,Wunderground v.1.15,2013-06-06 17:34:00,
2013-06-06 13:44:00,70.2,49.0,30.09,SE,128,5.0,5.0,47,0.00,,,0.00,Wunderground v.1.15,2013-06-06 17:44:00,
2013-06-06 13:49:00,70.5,49.3,30.09,ESE,114,5.0,5.0,47,0.00,,,0.00,Wunderground v.1.15,2013-06-06 17:49:00,
2013-06-06 14:00:00,70.1,49.5,30.09,ENE,58,4.0,4.0,48,0.00,,,0.00,Wunderground v.1.15,2013-06-06 18:00:00,
2013-06-06 14:08:00,70.2,51.0,30.09,West,263,1.0,12.0,50,0.00,,,0.00,weatherlink.com 1.10,2013-06-06 18:08:00,
2013-06-06 14:14:00,71.2,52.7,30.09,SE,125,3.0,4.0,52,0.00,,,0.00,Wunderground v.1.15,2013-06-06 18:14:00,
2013-06-06 14:20:00,70.4,53.0,30.09,ENE,67,3.0,3.0,54,0.00,,,0.00,Wunderground v.1.15,2013-06-06 18:20:00,
2013-06-06 14:29:00,69.8,56.2,30.08,SSE,167,3.0,3.0,62,0.00,,,0.00,Wunderground v.1.15,2013-06-06 18:29:00,
2013-06-06 14:34:00,69.4,57.1,30.09,ESE,108,3.0,4.0,65,0.00,,,0.00,Wunderground v.1.15,2013-06-06 18:34:00,
2013-06-06 14:53:00,68.7,57.0,30.08,SSE,159,2.0,12.0,67,0.00,,,0.00,weatherlink.com 1.10,2013-06-06 18:53:00,
2013-06-06 15:08:00,68.6,57.0,30.09,SE,146,1.0,6.0,67,0.00,,,0.00,weatherlink.com 1.10,2013-06-06 19:08:00,
2013-06-06 15:23:00,68.2,58.0,30.08,SE,129,3.0,7.0,70,0.00,,,0.00,weatherlink.com 1.10,2013-06-06 19:23:00,
2013-06-06 15:38:00,67.3,58.0,30.07,ESE,105,2.0,11.0,72,0.00,,,0.00,weatherlink.com 1.10,2013-06-06 19:38:00,
2013-06-06 15:53:00,67.2,59.0,30.07,ESE,110,4.0,6.0,74,0.00,,,0.00,weatherlink.com 1.10,2013-06-06 19:53:00,
2013-06-06 16:08:00,66.8,59.0,30.07,ESE,105,3.0,7.0,76,0.00,,,0.00,weatherlink.com 1.10,2013-06-06 20:08:00,
2013-06-06 16:23:00,67.0,59.0,30.06,SW,236,1.0,6.0,76,0.00,,,0.00,weatherlink.com 1.10,2013-06-06 20:23:00,
2013-06-06 16:38:00,66.9,59.0,30.06,SW,231,1.0,10.0,77,0.00,,,0.00,weatherlink.com 1.10,2013-06-06 20:38:00,
2013-06-06 16:53:00,66.4,59.0,30.06,SSE,167,2.0,8.0,78,0.00,,,0.00,weatherlink.com 1.10,2013-06-06 20:53:00,
2013-06-06 17:08:00,65.8,59.0,30.07,SE,130,3.0,8.0,79,0.00,,,0.00,weatherlink.com 1.10,2013-06-06 21:08:00,
2013-06-06 17:23:00,65.8,60.0,30.07,ESE,113,1.0,6.0,80,0.00,,,0.00,weatherlink.com 1.10,2013-06-06 21:23:00,
2013-06-06 17:38:00,65.5,60.0,30.06,NE,53,3.0,8.0,81,0.00,,,0.00,weatherlink.com 1.10,2013-06-06 21:38:00,
2013-06-06 17:53:00,65.0,59.0,30.05,ENE,58,2.0,9.0,82,0.00,,,0.00,weatherlink.com 1.10,2013-06-06 21:53:00,
2013-06-06 18:08:00,64.7,59.0,30.05,West,262,2.0,9.0,82,0.00,,,0.00,weatherlink.com 1.10,2013-06-06 22:08:00,
2013-06-06 18:23:00,64.4,59.0,30.05,East,95,3.0,8.0,83,0.00,,,0.00,weatherlink.com 1.10,2013-06-06 22:23:00,
2013-06-06 18:38:00,64.1,59.0,30.05,SE,132,4.0,9.0,83,0.00,,,0.00,weatherlink.com 1.10,2013-06-06 22:38:00,
2013-06-06 18:53:00,64.0,59.0,30.05,SE,132,6.0,8.0,84,0.00,,,0.00,weatherlink.com 1.10,2013-06-06 22:53:00,
2013-06-06 19:08:00,63.7,59.0,30.05,ESE,122,4.0,9.0,84,0.00,,,0.00,weatherlink.com 1.10,2013-06-06 23:08:00,
2013-06-06 19:23:00,63.7,59.0,30.05,ESE,113,4.0,7.0,85,0.00,,,0.00,weatherlink.com 1.10,2013-06-06 23:23:00,
2013-06-06 19:38:00,63.4,59.0,30.04,East,96,3.0,6.0,86,0.00,,,0.00,weatherlink.com 1.10,2013-06-06 23:38:00,
2013-06-06 19:53:00,63.3,59.0,30.04,ESE,112,1.0,8.0,85,0.00,,,0.00,weatherlink.com 1.10,2013-06-06 23:53:00,
2013-06-06 20:08:00,63.3,59.0,30.04,ESE,119,2.0,8.0,85,0.00,,,0.00,weatherlink.com 1.10,2013-06-07 00:08:00,
2013-06-06 20:23:00,63.3,58.0,30.04,ENE,78,1.0,5.0,84,0.00,,,0.00,weatherlink.com 1.10,2013-06-07 00:23:00,
2013-06-06 20:38:00,63.2,58.0,30.04,ESE,102,2.0,9.0,84,0.00,,,0.00,weatherlink.com 1.10,2013-06-07 00:38:00,
2013-06-06 20:53:00,63.3,58.0,30.04,ESE,105,2.0,8.0,84,0.00,,,0.00,weatherlink.com 1.10,2013-06-07 00:53:00,
2013-06-06 21:08:00,63.3,59.0,30.04,SE,142,4.0,7.0,85,0.00,,,0.00,weatherlink.com 1.10,2013-06-07 01:08:00,
2013-06-06 21:23:00,63.1,59.0,30.03,SW,214,3.0,10.0,85,0.00,,,0.00,weatherlink.com 1.10,2013-06-07 01:23:00,
2013-06-06 21:38:00,62.7,59.0,30.03,ESE,113,5.0,10.0,87,0.00,,,0.00,weatherlink.com 1.10,2013-06-07 01:38:00,
2013-06-06 21:53:00,62.3,59.0,30.03,ESE,121,3.0,6.0,88,0.01,,,0.01,weatherlink.com 1.10,2013-06-07 01:53:00,
2013-06-06 22:08:00,62.2,59.0,30.03,ESE,120,2.0,6.0,88,0.01,,,0.01,weatherlink.com 1.10,2013-06-07 02:08:00,
2013-06-06 22:23:00,62.0,59.0,30.03,East,91,2.0,6.0,88,0.01,,,0.01,weatherlink.com 1.10,2013-06-07 02:23:00,
2013-06-06 22:38:00,61.8,58.0,30.04,NE,55,2.0,4.0,88,0.01,,,0.01,weatherlink.com 1.10,2013-06-07 02:38:00,
2013-06-06 22:53:00,61.6,58.0,30.04,ENE,58,4.0,5.0,89,0.00,,,0.01,weatherlink.com 1.10,2013-06-07 02:53:00,
2013-06-06 23:08:00,61.5,58.0,30.03,SE,141,1.0,4.0,89,0.00,,,0.01,weatherlink.com 1.10,2013-06-07 03:08:00,
2013-06-06 23:23:00,61.6,58.0,30.02,NNW,329,1.0,7.0,89,0.00,,,0.01,weatherlink.com 1.10,2013-06-07 03:23:00,
2013-06-06 23:38:00,61.6,58.0,30.02,ESE,117,3.0,4.0,89,0.00,,,0.01,weatherlink.com 1.10,2013-06-07 03:38:00,
2013-06-06 23:53:00,61.6,58.0,30.01,ESE,103,3.0,6.0,89,0.01,,,0.02,weatherlink.com 1.10,2013-06-07 03:53:00,